DW8790 Maspalomas ES current weather conditions

sailwx.info

Wind from 261 at 2 knots gusting 6

Air temperature 22.8° C
Dewpoint 21.0° C

Last reported at 2014-Sep-02 01:50 UTC.
Time now 2014-Sep-02 02:11 UTC

Location: N 27°46' W 015°34'.
View on Google Maps.

See reports from other nearby stations

  
Tides and Currents Weather Stations Pressure Air Temp Water Temp Dewpoint Dewpoint Depression Visibility Wind Speed Wind Dir Waves Ship Positions
date/time (UTC)wind fromknots sea level pressurealtimeterstation pressurevisibilityair tempwater tempwave heightnotes
2014-Sep-02 01:50 261 2 gusting 6 22.8
2014-Sep-02 01:40 229 2 gusting 6 22.8
2014-Sep-02 01:30 255 4 gusting 6 22.8
2014-Sep-02 01:20 262 3 gusting 5 22.8
2014-Sep-02 01:10 221 2 gusting 6 22.8
2014-Sep-02 01:00 244 2 gusting 5 22.8
2014-Sep-02 00:50 241 4 gusting 6 23.3
2014-Sep-02 00:40 238 4 gusting 6 23.3
2014-Sep-02 00:30 230 4 gusting 7 23.3
2014-Sep-02 00:20 271 2 gusting 6 23.3
2014-Sep-02 00:10 293 3 gusting 6 23.3
2014-Sep-02 00:00 230 2 gusting 6 23.3
2014-Sep-01 23:50 257 1 gusting 5 23.3
2014-Sep-01 23:40 245 0 gusting 4 23.3
2014-Sep-01 23:30 245 1 gusting 6 23.3
2014-Sep-01 23:20 290 2 gusting 6 23.3
2014-Sep-01 23:10 275 3 gusting 5 23.3
2014-Sep-01 23:00 250 1 gusting 5 23.3
2014-Sep-01 22:50 246 3 gusting 5 23.3
2014-Sep-01 22:40 260 1 gusting 4 23.3
2014-Sep-01 22:30 265 2 gusting 5 23.3
2014-Sep-01 22:20 258 1 gusting 4 23.3
2014-Sep-01 22:10 281 1 gusting 4 23.3
2014-Sep-01 22:00 242 0 gusting 2 23.3
2014-Sep-01 21:50 242 23.3
2014-Sep-01 21:40 243 1 gusting 6 23.3
2014-Sep-01 21:30 207 1 gusting 5 23.3
2014-Sep-01 21:20 241 2 gusting 6 23.9
2014-Sep-01 21:10 241 3 gusting 6 23.9
2014-Sep-01 21:01 252 4 gusting 6 23.9
2014-Sep-01 20:50 256 5 gusting 7 23.9
2014-Sep-01 20:30 262 2 gusting 6 23.9
2014-Sep-01 20:20 232 3 gusting 6 23.9
2014-Sep-01 20:10 227 2 gusting 6 23.9
2014-Sep-01 20:01 230 4 gusting 6 23.9
2014-Sep-01 19:50 248 5 gusting 7 23.9
2014-Sep-01 19:40 253 4 gusting 8 23.9
2014-Sep-01 19:30 256 5 gusting 10 23.9
2014-Sep-01 19:20 238 5 gusting 10 24.4
2014-Sep-01 19:10 259 6 gusting 8 24.4
2014-Sep-01 19:00 234 5 gusting 10 24.4
2014-Sep-01 18:50 258 6 gusting 10 24.4
2014-Sep-01 18:40 250 7 gusting 10 24.4
2014-Sep-01 18:20 251 4 gusting 7 25.0
2014-Sep-01 18:10 253 6 gusting 8 25.0
2014-Sep-01 18:00 255 4 gusting 8 25.0
2014-Sep-01 17:50 206 5 gusting 8 25.6
2014-Sep-01 17:40 272 6 gusting 10 25.0
2014-Sep-01 17:30 235 6 gusting 10 25.0
2014-Sep-01 17:20 206 5 gusting 8 25.0
2014-Sep-01 17:10 274 6 gusting 7 25.6
2014-Sep-01 17:00 240 5 gusting 7 25.6
2014-Sep-01 16:50 237 5 gusting 6 25.6
2014-Sep-01 16:40 236 5 gusting 7 26.1
2014-Sep-01 16:30 192 4 gusting 6 26.1
2014-Sep-01 16:20 217 3 gusting 7 26.7
2014-Sep-01 16:10 190 1 gusting 7 26.1
2014-Sep-01 16:00 216 4 gusting 8 26.1
2014-Sep-01 15:50 187 4 gusting 6 26.1
2014-Sep-01 15:40 199 4 gusting 12 26.7
2014-Sep-01 15:30 240 4 gusting 10 26.1
2014-Sep-01 15:20 223 6 gusting 8 26.7
2014-Sep-01 15:10 196 5 gusting 10 26.7
2014-Sep-01 15:00 226 4 gusting 10 26.7
2014-Sep-01 14:50 241 4 gusting 8 26.7
2014-Sep-01 14:40 193 2 gusting 7 27.2
2014-Sep-01 14:30 199 4 gusting 10 27.2
2014-Sep-01 14:20 211 4 gusting 11 27.8
2014-Sep-01 14:10 168 2 gusting 10 27.2
2014-Sep-01 14:00 229 5 gusting 10 27.8
2014-Sep-01 13:50 240 6 gusting 11 27.8
2014-Sep-01 13:40 236 6 gusting 10 27.8
2014-Sep-01 13:30 175 4 gusting 8 27.8
2014-Sep-01 13:20 257 5 gusting 10 27.8
2014-Sep-01 13:10 255 6 gusting 10 27.8
2014-Sep-01 13:00 239 5 gusting 10 27.2
2014-Sep-01 12:50 216 5 gusting 10 27.2
2014-Sep-01 12:40 157 4 gusting 10 27.2
2014-Sep-01 12:30 179 5 gusting 10 27.2
2014-Sep-01 12:20 223 5 gusting 8 27.8
2014-Sep-01 12:10 249 6 gusting 10 27.2
2014-Sep-01 12:00 209 4 gusting 8 27.2
2014-Sep-01 11:50 243 5 gusting 10 27.2
2014-Sep-01 11:40 225 6 gusting 10 27.2
2014-Sep-01 11:30 261 6 gusting 8 27.2
2014-Sep-01 11:20 188 3 gusting 6 27.2
2014-Sep-01 11:10 185 2 gusting 7 26.7
2014-Sep-01 11:00 263 2 gusting 6 26.7
2014-Sep-01 10:50 247 2 gusting 7 26.7
2014-Sep-01 10:40 185 4 gusting 7 26.7
2014-Sep-01 10:30 205 2 gusting 6 25.6
2014-Sep-01 10:20 222 5 gusting 7 25.6
2014-Sep-01 10:10 205 0 gusting 4 25.6
2014-Sep-01 10:00 241 2 gusting 6 25.0
2014-Sep-01 09:50 249 1 gusting 6 25.0
2014-Sep-01 09:40 231 1 gusting 7 25.0
2014-Sep-01 09:30 247 4 gusting 7 24.4
2014-Sep-01 09:20 216 1 gusting 6 25.0
2014-Sep-01 09:10 228 3 gusting 6 25.0
2014-Sep-01 09:00 186 2 gusting 6 25.6
2014-Sep-01 08:50 226 0 gusting 5 25.6
2014-Sep-01 08:40 193 1 gusting 5 25.6
2014-Sep-01 08:30 301 0 gusting 4 25.0
2014-Sep-01 08:20 271 1 gusting 4 24.4
2014-Sep-01 08:10 286 0 gusting 4 24.4
2014-Sep-01 08:00 286 1 gusting 4 24.4
2014-Sep-01 07:50 286 23.9
2014-Sep-01 07:40 286 0 gusting 2 23.3
2014-Sep-01 07:30 286 22.8
2014-Sep-01 07:20 286 22.2
2014-Sep-01 07:10 286 21.7
2014-Sep-01 07:00 286 21.7
2014-Sep-01 06:50 286 0 gusting 2 21.7
2014-Sep-01 06:40 286 0 gusting 2 21.7
2014-Sep-01 06:30 286 1 gusting 2 21.7
2014-Sep-01 06:20 286 0 gusting 2 21.7
2014-Sep-01 06:10 286 1 gusting 2 21.7
2014-Sep-01 06:00 286 1 gusting 2 21.7
2014-Sep-01 05:50 277 1 gusting 4 21.7
2014-Sep-01 05:40 274 0 gusting 2 21.7
2014-Sep-01 05:30 274 1 gusting 2 21.7
2014-Sep-01 05:20 286 2 gusting 5 21.7
2014-Sep-01 05:10 276 1 gusting 4 21.7
2014-Sep-01 05:00 296 2 gusting 5 21.7
2014-Sep-01 04:50 288 2 gusting 4 21.7
2014-Sep-01 04:40 298 1 gusting 2 21.7
2014-Sep-01 04:30 268 1 gusting 2 21.7
2014-Sep-01 04:20 291 2 gusting 4 21.7
2014-Sep-01 04:10 316 1 gusting 2 21.7
2014-Sep-01 04:00 316 1 gusting 2 21.7
2014-Sep-01 03:50 316 21.7
2014-Sep-01 03:40 316 1 gusting 2 21.7
2014-Sep-01 03:30 316 0 gusting 2 21.7
2014-Sep-01 03:20 316 21.7
2014-Sep-01 03:10 316 0 gusting 2 21.7
2014-Sep-01 03:00 316 22.2
2014-Sep-01 02:50 316 22.2
2014-Sep-01 02:40 316 22.2
2014-Sep-01 02:30 316 0 gusting 2 22.2
2014-Sep-01 02:20 316 0 gusting 2 22.2
2014-Sep-01 02:10 316 0 gusting 2 22.2
2014-Sep-01 02:00 316 1 gusting 2 22.2
2014-Sep-01 01:50 297 0 gusting 2 22.2
2014-Sep-01 01:40 297 1 gusting 2 22.2
2014-Sep-01 01:30 297 0 gusting 2 22.8
2014-Sep-01 01:20 297 0 gusting 2 22.8
2014-Sep-01 01:10 297 1 gusting 2 22.8
2014-Sep-01 01:00 297 0 gusting 2 22.8
2014-Sep-01 00:50 297 22.8
2014-Sep-01 00:40 297 22.8
2014-Sep-01 00:30 297 0 gusting 2 22.8
2014-Sep-01 00:20 297 1 gusting 2 22.8
2014-Sep-01 00:10 297 0 gusting 2 22.8
2014-Sep-01 00:00 297 0 gusting 2 22.8
2014-Aug-31 23:50 297 0 gusting 2 22.8
2014-Aug-31 23:40 297 22.8
2014-Aug-31 23:30 297 22.8
2014-Aug-31 23:20 297 23.3
2014-Aug-31 23:10 297 1 gusting 2 23.3
2014-Aug-31 23:00 297 1 gusting 4 23.3
2014-Aug-31 22:50 319 0 gusting 6 23.3
2014-Aug-31 22:40 286 4 gusting 6 23.3
2014-Aug-31 22:30 262 4 gusting 7 23.3
2014-Aug-31 22:20 277 5 gusting 7 23.9
2014-Aug-31 22:10 272 5 gusting 10 23.9
2014-Aug-31 22:00 271 4 gusting 8 23.9
2014-Aug-31 21:50 264 6 gusting 10 23.9
2014-Aug-31 21:40 268 4 gusting 6 23.9
2014-Aug-31 21:30 262 5 gusting 7 23.9
2014-Aug-31 21:20 271 4 gusting 6 23.9
2014-Aug-31 21:10 272 4 gusting 6 23.9
2014-Aug-31 21:00 263 5 gusting 7 24.4
2014-Aug-31 20:50 267 5 gusting 6 24.4
2014-Aug-31 20:40 270 4 gusting 7 24.4
2014-Aug-31 20:30 277 5 gusting 8 24.4
2014-Aug-31 20:20 257 4 gusting 6 24.4
2014-Aug-31 20:10 249 4 gusting 6 24.4
2014-Aug-31 20:00 255 3 gusting 6 24.4
2014-Aug-31 19:50 242 4 gusting 5 24.4
2014-Aug-31 19:40 265 2 gusting 6 24.4
2014-Aug-31 19:30 223 2 gusting 6 25.0
2014-Aug-31 19:20 252 2 gusting 5 25.0
2014-Aug-31 19:10 240 2 gusting 6 25.6
2014-Aug-31 19:00 218 3 gusting 6 25.6
2014-Aug-31 18:50 211 2 gusting 5 26.1
2014-Aug-31 18:40 218 1 gusting 5 26.7
2014-Aug-31 18:30 232 3 gusting 5 26.7
2014-Aug-31 18:20 231 3 gusting 5 27.2
2014-Aug-31 18:10 207 1 gusting 6 27.2
2014-Aug-31 18:00 225 1 gusting 7 27.2
2014-Aug-31 17:50 229 5 gusting 7 27.2
2014-Aug-31 17:40 238 5 gusting 7 27.8
2014-Aug-31 17:30 254 4 gusting 7 27.2
2014-Aug-31 17:20 258 6 gusting 7 27.2
2014-Aug-31 17:10 229 6 gusting 10 27.8
2014-Aug-31 17:00 192 5 gusting 10 27.8
2014-Aug-31 16:50 234 5 gusting 8 27.8
2014-Aug-31 16:40 243 6 gusting 10 27.8
2014-Aug-31 16:30 253 6 gusting 11 27.8
2014-Aug-31 16:20 233 5 gusting 11 27.8
2014-Aug-31 16:10 250 5 gusting 10 27.8
2014-Aug-31 16:00 251 5 gusting 10 28.3
2014-Aug-31 15:50 253 5 gusting 10 28.3
2014-Aug-31 15:40 219 6 gusting 10 28.3
2014-Aug-31 15:30 234 5 gusting 10 28.9
2014-Aug-31 15:20 240 4 gusting 10 28.9
2014-Aug-31 15:10 217 4 gusting 6 28.9
2014-Aug-31 15:00 202 2 gusting 7 28.3
2014-Aug-31 14:50 183 4 gusting 8 28.3
2014-Aug-31 14:40 182 5 gusting 7 28.9
2014-Aug-31 14:30 145 2 gusting 10 28.9
2014-Aug-31 14:20 159 3 gusting 10 28.3
2014-Aug-31 14:10 167 4 gusting 6 28.3
2014-Aug-31 14:00 184 1 gusting 6 28.3
2014-Aug-31 13:50 203 4 gusting 7 28.3
2014-Aug-31 13:40 180 4 gusting 10 28.3
2014-Aug-31 13:30 163 5 gusting 8 28.3
2014-Aug-31 13:20 156 6 gusting 11 28.3
2014-Aug-31 13:10 166 5 gusting 10 28.3
2014-Aug-31 13:00 157 4 gusting 7 28.3
2014-Aug-31 12:50 128 5 gusting 8 27.8
2014-Aug-31 12:40 273 4 gusting 8 27.8
2014-Aug-31 12:30 211 5 gusting 10 27.2
2014-Aug-31 12:20 234 6 gusting 11 27.2
2014-Aug-31 12:10 223 6 gusting 12 27.2
2014-Aug-31 12:00 242 6 gusting 12 27.8
2014-Aug-31 11:50 246 6 gusting 11 29.4
2014-Aug-31 11:40 227 4 gusting 10 29.4
2014-Aug-31 11:30 164 5 gusting 6 29.4
2014-Aug-31 11:20 160 4 gusting 7 28.9
2014-Aug-31 11:10 186 5 gusting 7 28.3
2014-Aug-31 11:00 217 6 gusting 8 28.3
2014-Aug-31 10:50 208 5 gusting 8 28.3
2014-Aug-31 10:40 255 2 gusting 8 28.3
2014-Aug-31 10:30 255 5 gusting 7 28.3
2014-Aug-31 10:20 167 1 gusting 4 27.8
2014-Aug-31 10:10 254 2 gusting 6 27.2
2014-Aug-31 10:00 266 1 gusting 6 26.7
2014-Aug-31 09:50 235 4 gusting 6 26.1
2014-Aug-31 09:40 246 2 gusting 6 26.1
2014-Aug-31 09:30 275 5 gusting 7 25.6
2014-Aug-31 09:20 265 3 gusting 6 25.6
2014-Aug-31 09:10 246 3 gusting 6 25.6
2014-Aug-31 09:00 267 1 gusting 5 25.0
2014-Aug-31 08:50 266 25.0
2014-Aug-31 08:40 217 2 gusting 5 25.0
2014-Aug-31 08:30 247 2 gusting 4 25.6
2014-Aug-31 08:20 281 2 gusting 5 25.6
2014-Aug-31 08:10 283 25.0
2014-Aug-31 08:00 283 24.4
2014-Aug-31 07:50 283 23.9
2014-Aug-31 07:40 283 22.8
2014-Aug-31 07:30 283 21.7
2014-Aug-31 07:20 283 21.1
2014-Aug-31 07:10 283 20.6
2014-Aug-31 07:00 283 0 gusting 2 20.6
2014-Aug-31 06:50 283 20.0
2014-Aug-31 06:40 283 20.0
2014-Aug-31 06:30 283 20.0
2014-Aug-31 06:20 283 0 gusting 2 20.0
2014-Aug-31 06:10 283 2 gusting 2 20.0
2014-Aug-31 06:00 283 1 gusting 2 20.6
2014-Aug-31 05:50 283 2 gusting 2 20.6
2014-Aug-31 05:40 283 20.6
2014-Aug-31 05:30 283 20.6
2014-Aug-31 05:20 283 1 gusting 2 20.6
2014-Aug-31 05:10 283 1 gusting 2 20.6
2014-Aug-31 05:00 283 20.6
2014-Aug-31 04:50 283 20.6
2014-Aug-31 04:40 283 20.6
2014-Aug-31 04:30 283 20.6
2014-Aug-31 04:20 283 20.6
2014-Aug-31 04:10 283 20.6
2014-Aug-31 04:00 283 20.6
2014-Aug-31 03:50 283 20.6
2014-Aug-31 03:40 283 21.1
2014-Aug-31 03:30 283 21.1
2014-Aug-31 03:20 283 21.1
2014-Aug-31 03:10 283 21.1
2014-Aug-31 03:00 259 2 gusting 5 21.1
2014-Aug-31 02:50 279 21.1
2014-Aug-31 02:40 279 0 gusting 1 21.1
2014-Aug-31 02:30 279 0 gusting 4 21.1
2014-Aug-31 02:20 262 2 gusting 4 21.1
2014-Aug-31 02:10 287 2 gusting 5 21.7
2014-Aug-31 02:00 287 1 gusting 2 21.7